{"data":{"norad_id":61948,"intl_designator":"2024-209K","name":"STARLINK-11414 [DTC]","alt_names":[],"object_type":"PAYLOAD","status":"ACTIVE","operator":null,"country":"US","launch_date":"2024-11-14","launch_site_code":"AFWTR","launch_vehicle":null,"mission":null,"orbit_class":"UNKNOWN","rcs_meters":null,"size_class":null,"mass_kg":null,"dimensions":null,"purposes":["comms"],"wikipedia_slug":null,"has_3d_model":false,"image_url":null,"decayed_at":null,"tle_current":{"epoch":"2026-09-21T21:02:41.122176Z","epoch_age_seconds":66702,"freshness":"FRESH","line1":"1 61948U 24209K   26264.87686484  .00169529  00000+0  13761-2 0  9997","line2":"2 61948  53.1578 123.9622 0000984  96.5805 263.5325 15.69703968107534","mean_motion":15.69703968,"eccentricity":9.84e-5,"inclination_deg":53.1578,"raan_deg":123.9622,"arg_perigee_deg":96.5805,"mean_anomaly_deg":263.5325,"bstar":0.0013761,"rev_number":10753,"period_min":91.737042739004,"perigee_km":359.08100425857,"apogee_km":360.40701924169,"semimajor_km":6737.8810117501,"source":"CELESTRAK","updated_at":"2026-09-22T09:00:49.455384Z"}}}